Weather in Troitskiy Sungur

Russia / Ulyanovsk Oblast     53°17′14″N   47°37′21″E
temp.,
°C
wind,
m/s
gust,
m/s
humid.,
%
clouds,
%
prec.,
mm/h
press.,
hPa
HPBL,
m
6 march, sat
sat601:00−11wsw22920 0.0 101321
04:00−11w339414 0.0 101471
07:00−13w239580 0.0 101528
10:00−9wnw259059 0.0 1016215
13:00−5nnw2377100 0.0 1016541
16:00−4sw0170100 0.0 1015793
19:00−9sse1187100 0.0 101421
22:00−12ssw1192100 0.0 101421
7 march, sun
sun701:00−13wnw119567 0.0 101321
04:00−12wnw119674 0.1 101321
07:00−15w229336 0.0 101320
10:00−11wsw359238 0.0 1013247
13:00−7wsw588343 0.0 1012778
16:00−6sw698061 0.0 1009947
19:00−8ssw71587100 0.0 1006818
22:00−5sw91693100 0.6 10031109
8 march, mon
mon801:00−4sw91692100 0.8 9991024
04:00−3sw81494100 1.2 999891
07:00−9wnw348599 0.4 99968
10:00−7wsw588577 0.4 1001345
13:00−3wsw8127866 0.0 10011349
16:00−3wsw8128082 0.3 10011438
19:00−7wsw6148167 0.3 1002457
22:00−10w6148849 0.4 1005412
9 march, tue
tue901:00−12w511931 0.0 1008244
04:00−14w489510 0.0 1010151
07:00−16w359723 0.0 101287
10:00−12wnw469221 0.0 1014301
13:00−8wnw358289 0.0 1014694
16:00−8wnw348294 0.1 1014809
19:00−12nw2388100 0.0 101523
22:00−14n239698 0.1 101776
10 march, wed
wed1001:00−19nnw239694 0.0 101725
04:00−20nnw239596 0.0 101839
07:00−22nnw339587 0.0 101947
10:00−19nnw469361 0.0 1020311
13:00−15nnw578491 0.0 1021726
16:00−14nw578295 0.1 1021881
19:00−19nw3692100 0.0 1023126
22:00−24nw239691 0.1 102537